Regional Weather Roundup
Issued by NWS

Home | Current Version | Previous Version | Graphics & Text | Print | Product List | Glossary On
Versions: 1 2 3 4 5 6 7 8 9 10 11 12 13 14 15 16 17 18 19 20 21 22 23 24 25 26 27
000
ASUS45 KTFX 302310
RWRMT
MONTANA REGIONAL WEATHER ROUNDUP
NATIONAL WEATHER SERVICE GREAT FALLS MT
500 PM MDT SAT JUL 30 2016

NOTE: "FAIR" INDICATES FEW OR NO CLOUDS BELOW 12000 FEET WITH NO
SIGNIFICANT WEATHER AND/OR OBSTRUCTIONS TO VISIBILITY.

MTZ001>007-043-310000-
WEST OF THE DIVIDE

CITY           SKY/WX    TMP DP  RH WIND       PRES   REMARKS
KALISPELL      SUNNY     92  39  15 SW15G26   29.69S
MISSOULA       MOSUNNY   95  43  16 NW17G25   29.74F HX  91
BUTTE          SUNNY     88  33  14 NW13G22   29.88F
MULLAN PASS    SUNNY     72  41  32 SW9G21    29.99S
DEER LODGE       N/A     90  37  15 SW3       29.83F
EUREKA           N/A     91  37  15 SW18G25   29.69R
HAMILTON         N/A     91  45  19 W15G21    29.74F
LIBBY            N/A     88  45  22 S5        29.71F
PLAINS           N/A     92  47  21 W20       29.73F
RONAN            N/A     92  47  21 SW10      29.80F
$$

MTZ008-052>055-310000-
SOUTHWEST MONTANA

CITY           SKY/WX    TMP DP  RH WIND       PRES   REMARKS
BOZEMAN        SUNNY     93  42  17 VRB3      29.79F
DILLON         SUNNY     83  49  30 SW12      29.83F
W YELLOWSTONE  CLOUDY    77  36  22 CALM      30.07F
ENNIS          PTSUNNY   82  41  23 SW20G39   29.94R
THREE FORKS      N/A     96 N/A N/A W8        29.79F
TWIN BRIDGES     N/A     92  45  19 S8        29.83F
$$

MTZ009-010-012-014-046-048-049-054-310000-
EAST SLOPES AND CENTRAL MONTANA

CITY           SKY/WX    TMP DP  RH WIND       PRES   REMARKS
CUT BANK         N/A     89  40  17 W17G29    29.72F
GREAT FALLS    SUNNY     94  31  10 W12G21    29.72F
MALMSTROM AFB  MOSUNNY   94  33  11 SW23      29.71F
HELENA         SUNNY     97  35  11 W14G30    29.73F HX  92
CHOTEAU          N/A     91  34  13 W6        29.75F
CONRAD           N/A     93  47  20 NE1       29.77F
$$

MTZ011-013-016-021-045-047-050-051-310000-
NORTH CENTRAL MONTANA

CITY           SKY/WX    TMP DP  RH WIND       PRES   REMARKS
HAVRE          MOSUNNY   91  49  23 MISG      29.66F
LEWISTOWN      SUNNY     92  48  22 NW6       29.78
N BAR RANCH      N/A     91  39  16 NW14      29.81F
CHINOOK          N/A     93  54  26 S8        29.66F HX  91
$$

MTZ017>020-022>027-061-062-310000-
NORTHEAST MONTANA

CITY           SKY/WX    TMP DP  RH WIND       PRES   REMARKS
GLASGOW        SUNNY     87  54  32 SE13      29.70F
JORDAN           N/A     94  49  21 SE15      29.71F HX  90
SIDNEY         SUNNY     91  49  23 VRB3      29.76F
WOLF POINT     SUNNY     92  52  25 SE5       29.73F
PLENTYWOOD       N/A     90  46  22 SE5       29.78F
POPLAR           N/A     90  46  22 SE10      29.75F
SCOBEY           N/A     87  48  25 SE1       29.79F
$$

MTZ028>42-056>058-310000-
SOUTHCENTRAL AND SOUTHEAST MONTANA

CITY           SKY/WX    TMP DP  RH WIND       PRES   REMARKS
BAKER          SUNNY     90  53  28 S6        29.80F
BILLINGS       MOSUNNY   94  40  15 SE3       29.75F HX  90
LIVINGSTON     SUNNY     95  35  12 W17G28    29.80F HX  90
MILES CITY     SUNNY     96  43  16 CALM      29.71F HX  92
EKALAKA          N/A     90  48  23 NE3       29.82F
FORSYTH          N/A     99  48  18 E8        29.69F HX  95
LAUREL           N/A     96  46  18 CALM      29.77F HX  92
ROUNDUP          N/A     94  46  19 CALM      29.68F HX  90
$$

REGIONAL REPORTS...DAKOTAS

CITY           SKY/WX    TMP DP  RH WIND       PRES   REMARKS
WILLISTON      SUNNY     90  50  25 SE6       29.78F
MINOT          SUNNY     88  59  37 SE8       29.81S
DICKINSON      SUNNY     86  48  26 CALM      29.80F
BEACH            N/A     88  48  25 SE5       29.83F
CROSBY           N/A     82  55  39 S5        29.82S
WATFORD CITY   PTSUNNY   86  52  30 SE12G18   29.79F
BISMARCK       SUNNY     86  63  45 SE13      29.81F
GRAND FORKS    CLOUDY    79  62  56 S10       29.89F
FARGO          SUNNY     81  60  48 S15       29.92S
BUFFALO SD       N/A     92  51  24 VRB7      29.75F
RAPID CITY     CLOUDY    87  55  33 SE13      29.82S THUNDER
$$

REGIONAL REPORTS...WYOMING/IDAHO/WASHINGTON

CITY           SKY/WX    TMP DP  RH WIND       PRES   REMARKS
GILLETTE       CLOUDY    89  47  23 E13       29.80F THUNDER
SHERIDAN       SUNNY     99  42  14 NW8       29.77F HX  94
BUFFALO WY     SUNNY     96  34  11 N8        29.86R HX  91
CODY           CLOUDY    81  39  22 W21G38    29.91R
YELLOWSTONE LA   N/A     67  48  50 CALM      30.18F
IDAHO FALLS    CLOUDY    94  40  15 S16       29.89F HX  90
SALMON         SUNNY     93  41  16 W15       29.73S
BOISE          SUNNY    100  39  12 N13G21    29.76F HX  95
SPOKANE        MOSUNNY   91  33  12 W24G32    29.74F
$$

REGIONAL REPORTS...ALBERTA

CITY           SKY/WX    TMP DP  RH WIND       PRES   REMARKS
EDMONTON       MOSUNNY   70  59  68 E5        29.72R
CALGARY        CLOUDY    72  55  56 SE14      29.70F THUNDER
LETHBRIDGE     MOSUNNY   82  61  47 NE12G18   29.66F
MEDICINE HAT   MOSUNNY   93  55  27 CALM      29.66F HX  91
WATERTON GATE    N/A     82  46  28 SW10G23     N/A
MILK RIVER       N/A     86  52  30 E7          N/A
ONEFOUR          N/A     91  41  17 NW8G17      N/A
$$

REGIONAL REPORTS...SASKATCHEWAN

CITY           SKY/WX    TMP DP  RH WIND       PRES   REMARKS
SWIFT CURRENT  PTSUNNY   73  59  60 SE15G24   29.73F
REGINA         PTSUNNY   82  59  44 S6        29.77F
SASKATOON      PTSUNNY   68  64  88 SE7       29.71F
CYPRESS HILLS    N/A     79  54  41 NW5         N/A
VAL MARIE        N/A     77  57  50 E12         N/A
ROCKGLEN         N/A     75  57  53 NW9G18      N/A
ASSINIBOIA       N/A     72  57  60 SE6         N/A
$$




USA.gov is the U.S. government's official web portal to all federal, state and local government web resources and services.